Sioux City, IA

9:44 AM CST on December 08, 2019 (GMT -0600)
Sioux Gateway

Weather History for KSUX - October, 2019

Change the Weather History Date:

Friday, October 18, 2019

  Actual Average Record
Temperature  
Mean Temperature 63 °F 50 °F  
Max Temperature 77 °F 63 °F 87 °F (1950)
Min Temperature 49 °F 37 °F 20 °F (1972)
Degree Days  
Heating Degree Days 2 15  
Month to date heating degree days 281 218  
Since 1 July heating degree days 317 365  
Cooling Degree Days 0 0  
Month to date cooling degree days 0 8  
Year to date cooling degree days 910 869  
Growing Degree Days 13 (Base 50)    
Moisture  
Dew Point 45 °F    
Average Humidity 62    
Maximum Humidity 80    
Minimum Humidity 36    
Precipitation  
Precipitation 0.00 in 0.07 in 1.02 in (1897)
Month to date precipitation 2.17 1.44  
Year to date precipitation 30.28 24.94  
Snow  
Snow 0.00 in 0.00 in 1.60 in (1898)
Month to date snowfall T 0.3  
Since 1 July snowfall T 0.3  
Since 1 September snowfall T 0.3  
Snow Depth 0.00 in    
Sea Level Pressure  
Sea Level Pressure 29.58 in    
Wind  
Wind Speed 12 mph ()    
Max Wind Speed 23 mph    
Max Gust Speed 45 mph    
Visibility 10.0 miles    
Events      
T = Trace of Precipitation, MM = Missing Value Source: Averaged Metar Reports

Daily Weather History Graph

Daily Weather History Graph

Search for Another Location

Airport or City:

Astronomy

Oct. 18, 2019 Rise Set
Actual Time 7:41 AM CDT 6:38 PM CDT
Civil Twilight 7:13 AM CDT 7:07 PM CDT
Nautical Twilight 6:40 AM CDT 7:40 PM CDT
Astronomical Twilight 6:08 AM CDT 8:12 PM CDT
Moon 9:51 PM CDT (10/18) 12:20 PM CDT (10/18)
Length of Visible Light 11h 54m
Length of Day
10h 57m
Waning Gibbous, 78% of the Moon is Illuminated
Oct 18
Waning Gibbous
Oct 21
Last Quarter
Oct 27
New
Nov 4
First Quarter
Nov 12
Full

Hourly Weather History & Observations

Time (CDT) Temp. Dew Point Humidity Pressure Visibility Wind Dir Wind Speed Gust Speed Precip Events Conditions
12:52 AM 50.0 °F 43.0 °F 77% 29.73 in 10.0 mi SE 11.5 mph - N/A   Clear
1:52 AM 51.1 °F 44.1 °F 77% 29.71 in 10.0 mi SE 12.7 mph - N/A   Clear
2:52 AM 51.1 °F 44.1 °F 77% 29.69 in 10.0 mi SE 11.5 mph - N/A   Clear
3:52 AM 50.0 °F 44.1 °F 80% 29.67 in 10.0 mi SE 11.5 mph - N/A   Clear
4:52 AM 50.0 °F 44.1 °F 80% 29.65 in 10.0 mi SE 12.7 mph - N/A   Clear
5:52 AM 50.0 °F 44.1 °F 80% 29.63 in 10.0 mi SE 12.7 mph - N/A   Clear
6:52 AM 50.0 °F 44.1 °F 80% 29.62 in 10.0 mi SE 12.7 mph - N/A   Clear
7:52 AM 50.0 °F 44.1 °F 80% 29.62 in 10.0 mi SSE 10.4 mph - N/A   Clear
8:52 AM 52.0 °F 45.0 °F 77% 29.60 in 10.0 mi SSE 12.7 mph 21.9 mph N/A   Clear
9:52 AM 55.0 °F 44.1 °F 67% 29.57 in 10.0 mi SSE 18.4 mph 33.4 mph N/A   Clear
10:52 AM 60.1 °F 46.0 °F 60% 29.55 in 10.0 mi SSE 19.6 mph 28.8 mph N/A   Clear
11:52 AM 66.0 °F 46.0 °F 48% 29.52 in 10.0 mi SSE 17.3 mph 28.8 mph N/A   Clear
12:52 PM 70.0 °F 48.0 °F 46% 29.47 in 10.0 mi SSE 23.0 mph 35.7 mph N/A   Clear
1:52 PM 71.1 °F 48.0 °F 44% 29.45 in 10.0 mi SSE 20.7 mph 28.8 mph N/A   Clear
2:52 PM 75.0 °F 50.0 °F 41% 29.43 in 10.0 mi South 23.0 mph 32.2 mph N/A   Partly Cloudy
3:52 PM 77.0 °F 48.9 °F 37% 29.45 in 10.0 mi SSW 21.9 mph 36.8 mph N/A   Clear
4:52 PM 77.0 °F 48.0 °F 36% 29.45 in 10.0 mi SSW 18.4 mph 28.8 mph N/A   Clear
5:52 PM 73.9 °F 48.9 °F 41% 29.47 in 10.0 mi SSW 9.2 mph - N/A   Clear
6:52 PM 68.0 °F 43.0 °F 40% 29.52 in 10.0 mi WNW 12.7 mph - N/A   Clear
7:52 PM 62.1 °F 44.1 °F 52% 29.58 in 10.0 mi WNW 16.1 mph - N/A   Clear
8:52 PM 59.0 °F 45.0 °F 60% 29.62 in 10.0 mi West 8.1 mph - N/A   Clear
9:52 PM 55.9 °F 44.1 °F 64% 29.64 in 10.0 mi WNW 5.8 mph - N/A   Clear
10:52 PM 52.0 °F 44.1 °F 74% 29.65 in 10.0 mi West 6.9 mph - N/A   Clear
11:52 PM 53.1 °F 42.1 °F 66% 29.68 in 10.0 mi West 6.9 mph - N/A   Clear